Regional Weather Roundup
Issued by NWS New Orleans/Baton Rouge, LA

Home | Current Version | Previous Version | Text Only | Print | Product List | Glossary On
Versions: 1 2 3 4 5 6 7 8 9 10 11 12 13 14 15 16 17 18 19 20 21 22 23 24 25 26 27 28 29 30 31 32 33 34 35 36 37 38 39 40 41 42 43 44 45 46 47 48 49 50
227
ASUS44 KLIX 181513
RWRLIX
NEW ORLEANS REGIONAL WEATHER ROUNDUP
NATIONAL WEATHER SERVICE NEW ORLEANS LA
900 AM CST MON DEC 18 2017

NOTE: "FAIR" INDICATES FEW OR NO CLOUDS BELOW 12,000 FEET WITH NO
      SIGNIFICANT WEATHER AND/OR OBSTRUCTIONS TO VISIBILITY.
      SKY/WX - SKY CONDITION AND SIGNIFICANT WEATHER.
      TMP - AIR TEMPERATURE.     DP    - DEWPOINT TEMPERATURE.
      RH  - RELATIVE HUMIDITY.   PRES  - PRESSURE.
      HI  - HEAT INDEX.          WCI   - WIND CHILL INDEX.

*  THESE STATIONS ARE NOT NWS OR FAA STATIONS AND ARE NOT UNDER
   NWS QUALITY CONTROL.

LAZ038-040-048-061>063-065>067-069-181600-
SOUTHEAST LOUISIANA

CITY           SKY/WX    TMP DP  RH WIND       PRES   REMARKS
N.O. INTL ARPT FOG       67  67 100 NW9       30.19R VSB 1/4
N.O. LAKEFRONT FOG       62  61  96 NE5       30.20R VSB<1/4
N.O. DOWNTOWN* CLOUDY    69  67  93 CALM      30.20R FOG
RESERVE*       LGT RAIN  66  64  94 N3        30.20R
SLIDELL        LGT RAIN  66  65  96 E3        30.19S FOG
BATON ROUGE    CLOUDY    64  63  96 NW3       30.21R FOG
BOOTHVILLE     FOG       71  70  96 S5        30.21R VSB 1/4
BELLE CHASSE   CLOUDY    71  71 100 SW9       30.19R FOG
BOGALUSA*      LGT RAIN  65  62  91 MISG      30.20S
GALLIANO*      PTSUNNY   72  69  91 SW9       30.19R
NEW ROADS*     CLOUDY    60  60  99 NW5       30.21S
GONZALES*      CLOUDY    64  64 100 N6        30.19R
HAMMOND*       DRIZZLE   63  63 100 CALM      30.21R
HOUMA*         CLOUDY    72  72 100 S9        30.19R FOG
PORT FOURCHON* CLOUDY    72  72 100 S9        30.21R FOG

$$

MSZ070-080>082-181600-
SOUTHERN MISSISSIPPI

CITY           SKY/WX    TMP DP  RH WIND       PRES   REMARKS
MCCOMB         LGT RAIN  63  61  93 N3        30.21R FOG
GULFPORT       CLOUDY    66  65  96 N3        30.20R FOG
BILOXI         DRIZZLE   65  65  98 CALM      30.20R FOG
PASCAGOULA     LGT RAIN  66  64  93 N3        30.21R FOG
STENNIS ARPT*  CLOUDY    64  64 100 CALM      30.21  FOG

$$

COASTAL OBSERVATIONS
LAKE AND NEARSHORE STATIONS

STATION/POSITION TIME  TEMP    WIND        PRES    WAVE
                       AIR SEA DIR/SP/G            HT/PER
                 (UTC) (F)     (DEG/KT/KT) (MB)    (FT/S)
PASCAGOULA       1448   66      CALM  /  1 1022.4
WAVELAND YACHT   1442   63 54   20/  2/  3 1022.7
GRAND ISLE       1448   70 63  200/  5/  8 1022.5
SOUTHWEST PASS   1448   69 57  230/  7/  7 1023.3
NEW CANAL        1448   59 55   10/  3/  4 1022.2
SHELL BEACH      1442   60 57   60/  4/  6 1022.5

OFFSHORE STATIONS

STATION/POSITION TIME  TEMP    WIND        PRES    WAVE
                       AIR SEA DIR/SP/G            HT/PER
                 (UTC) (F)     (DEG/KT/KT) (MB)    (FT/S)
64 S DAUPHIN ISL 1450   75 75  220/  8/ 10 1023.0    4/ 6

$$





USA.gov is the U.S. government's official web portal to all federal, state and local government web resources and services.